Tracking 18630 objects as of 23-May-2017
HD Live streaming from Space Station
objects crossing your sky now

ARIANE 44L+3 R/B

Track ARIANE 44L+3 R/B now!


NORAD ID: 23866
Int'l Code: 1996-030C
Perigee: 281.9 km
Apogee: 30,741.3 km
Inclination: 4.1 °
Period: 536.9 minutes
Semi major axis: 21882 km
RCS: 20.3809 m2 (large)
Launch date: May 16, 1996
Source: France (FR)
Launch site: FRENCH GUIANA (FRGUI)

Note: This is a ROCKET BODY
Your satellite tracking list
Your tracking list is empty





NASA's NSSDC Master Catalog

Two Line Element Set (TLE):
1 23866U 96030C   17142.51289659 +.00002705 +00000-0 +97780-3 0  9991
2 23866 004.0500 183.3833 6959727 275.0762 015.5488 02.68197050190389
Source of the keplerian elements: AFSPC